Back to catalog

STARLINK-38191

AliveCommunicationsSSO
NORAD 100246·PAYLOAD·🇺🇸 United States

Launched Aug 8, 2026 from Vandenberg Space Force Base

Loading…

Next Passes (next 24 hours)

TLE

FreshSource: Space-Track

Epoch: Sep 14, 2026, 14:11 UTC

1 A0246U 26181A   26257.59131944  .00199435  00000-0  13026-2 0  9993
2 A0246  97.2830 300.7920 0000965 288.2786  71.8374 15.75267977  6973

Track STARLINK-38191 in real time with AllMySat

Download on the App Store